NOAA 17 DEB

Satellite information

Favourite Embed

Satellite Type and Status

DEBRISIN ORBIT

Key statistics

Satellite NOAA 17 DEB at a glance.

Uptime

8476

Days in orbit

Revolutions

≈ 14.7

Per day

Orbit

SSO

Sun Synchronous Orbit

Inclination

99.0

Latest

Satellite identification and parameters

Extended collection of information and parameters for NOAA 17 DEB.

Object identification

Identified? True

Debris? True

Object name: NOAA 17 DEB

International designator: 2002-032CG

Object number (NORAD): 48747

Object ID (CCSDS): 48747

Country: UNITED STATES OF AMERICA (US)

Current information (Y/N): Y

RCS size: SMALL

Orbital parameters

Period: 97.705 minutes

Inclination: 99.0334 deg

SMA: 7027.014 km

Apoapsis: 669.409 km

Periapsis: 628.35 km

RAAN: 328.1996 deg

Eccentricy: 0.00292152

Argument of periapsis: 195.7076 deg

Mean anomaly: 164.3225 deg

Mean motion: 14.73827022 rev/day

Mean motion (dot): 0.00050937 rev/day2

B* drag term: 0.0076815615 1/REarth

Two-line elements (TLE)

Creation date: Sept. 3, 2025, 10:15 a.m.

Reference frame: TEME

Reference center: EARTH

Epoch: Sept. 3, 2025, 4:50 a.m. UTC

TLE line 0: 0 NOAA 17 DEB

TLE line 1: 1 48747U 02032CG 25246.20146519 .00050937 00000-0 76816-2 0 9998

TLE line 2: 2 48747 99.0334 328.1996 0029215 195.7076 164.3225 14.73827022234583

Live tracking on map

Real-time ground track for satellite NOAA 17 DEB.

In-orbit conjunctions

A list of the most updated potential collisions computed for object NOAA 17 DEB.

Target Orbit TCA Probability of collision Miss distance Type
ATLAS CENTAUR R/B LEO 2024-11-05 12:10:31 0.0001098631 761.0 (m) ROCKET BODY

Associated space launch

NOAA M carried weather imagers and microwave and infrared sounders, as well as a SARSAT search-and-rescue package. It had an on-orbit mass of 1475 kg.

NOAA 17 DEB was lifted into orbit during the mission ‘Titan II SLV | NOAA 17’, on board a Titan II SLV space rocket.

The launch took place on June 24, 2002, 6:23 p.m. from Space Launch Complex 4W.

For more information about the launch, click the button.

Launch to space Titan II SLV | NOAA 17
Titan II SLV | NOAA 17

Agency: N/A

Status: Launch Successful

Launch date: June 24, 2002, 6:23 p.m. UTC

Rocket: Titan II SLV

Launch pad: Space Launch Complex 4W

Location: Vandenberg SFB, CA, USA

...

Latest news about this satellite

There are no fresh news available about this satellite. Check back as we update our databases every day.


Newsletter sign-up

Weekly statistics, charts and insights to help you stay on top of the space industry.